Time,TemperatureF,DewpointF,PressureIn,WindDirection,WindDirectionDegrees,WindSpeedMPH,WindSpeedGustMPH,Humidity,HourlyPrecipIn,Conditions,Clouds,dailyrainin,SoftwareType,DateUTC
2013-05-30 00:00:00,61.2,55.6,29.48,NE,43,13.0,18.0,82,0.00,,,0.00,VWS V14.01,2013-05-30 05:00:00,
2013-05-30 00:01:00,59.8,54.9,29.47,ENE,66,14.0,15.0,84,0.00,,,0.00,VWS V14.01,2013-05-30 05:01:00,
2013-05-30 00:06:00,59.6,54.7,29.46,ENE,57,10.0,19.0,84,0.00,,,0.00,VWS V14.01,2013-05-30 05:06:00,
2013-05-30 00:11:00,59.5,54.6,29.46,ENE,60,5.0,19.0,84,0.00,,,0.00,VWS V14.01,2013-05-30 05:11:00,
2013-05-30 00:15:00,60.9,55.3,29.48,ENE,70,5.0,19.0,82,0.00,,,0.00,VWS V14.01,2013-05-30 05:15:00,
2013-05-30 00:16:00,59.4,54.5,29.47,NE,55,5.0,9.0,84,0.00,,,0.00,VWS V14.01,2013-05-30 05:16:00,
2013-05-30 00:21:00,59.3,54.7,29.47,NE,51,6.0,15.0,85,0.00,,,0.00,VWS V14.01,2013-05-30 05:21:00,
2013-05-30 00:26:00,59.3,54.7,29.47,NE,34,9.0,15.0,85,0.00,,,0.00,VWS V14.01,2013-05-30 05:26:00,
2013-05-30 00:30:00,60.6,55.3,29.48,NE,37,10.0,14.0,83,0.00,,,0.00,VWS V14.01,2013-05-30 05:30:00,
2013-05-30 00:31:00,59.2,54.6,29.47,NE,51,4.0,6.0,85,0.00,,,0.00,VWS V14.01,2013-05-30 05:31:00,
2013-05-30 00:36:00,59.1,54.5,29.47,ENE,59,4.0,11.0,85,0.00,,,0.00,VWS V14.01,2013-05-30 05:36:00,
2013-05-30 00:41:00,59.1,54.5,29.47,NNE,30,2.0,11.0,85,0.00,,,0.00,VWS V14.01,2013-05-30 05:41:00,
2013-05-30 00:45:00,60.2,55.3,29.48,ENE,63,10.0,13.0,84,0.00,,,0.00,VWS V14.01,2013-05-30 05:45:00,
2013-05-30 00:46:00,59.0,54.4,29.47,North,11,5.0,13.0,85,0.00,,,0.00,VWS V14.01,2013-05-30 05:46:00,
2013-05-30 00:51:00,58.9,54.3,29.47,NE,55,6.0,14.0,85,0.00,,,0.00,VWS V14.01,2013-05-30 05:51:00,
2013-05-30 00:56:00,58.8,54.2,29.47,NE,54,7.0,14.0,85,0.00,,,0.00,VWS V14.01,2013-05-30 05:56:00,
2013-05-30 01:00:00,59.8,54.9,29.47,NNE,19,10.0,16.0,84,0.00,,,0.00,VWS V14.01,2013-05-30 06:00:00,
2013-05-30 01:01:00,58.7,54.4,29.47,NE,55,7.0,11.0,86,0.00,,,0.00,VWS V14.01,2013-05-30 06:01:00,
2013-05-30 01:06:00,58.7,54.4,29.47,East,80,9.0,13.0,86,0.00,,,0.00,VWS V14.01,2013-05-30 06:06:00,
2013-05-30 01:11:00,58.6,54.3,29.47,NE,53,2.0,13.0,86,0.00,,,0.00,VWS V14.01,2013-05-30 06:11:00,
2013-05-30 01:15:00,59.4,54.5,29.47,NE,49,3.0,19.0,84,0.00,,,0.00,VWS V14.01,2013-05-30 06:15:00,
2013-05-30 01:16:00,58.5,54.2,29.46,NE,46,7.0,11.0,86,0.00,,,0.00,VWS V14.01,2013-05-30 06:16:00,
2013-05-30 01:21:00,58.5,54.2,29.46,NNE,24,5.0,11.0,86,0.00,,,0.00,VWS V14.01,2013-05-30 06:21:00,
2013-05-30 01:26:00,58.4,54.1,29.46,NE,39,5.0,11.0,86,0.00,,,0.00,VWS V14.01,2013-05-30 06:26:00,
2013-05-30 01:30:00,59.3,54.7,29.47,ENE,62,4.0,15.0,85,0.00,,,0.00,VWS V14.01,2013-05-30 06:30:00,
2013-05-30 01:31:00,58.3,54.0,29.46,NE,49,5.0,7.0,86,0.00,,,0.00,VWS V14.01,2013-05-30 06:31:00,
2013-05-30 01:36:00,58.2,54.3,29.46,NE,38,4.0,13.0,87,0.00,,,0.00,VWS V14.01,2013-05-30 06:36:00,
2013-05-30 01:41:00,58.2,54.3,29.46,NE,49,7.0,13.0,87,0.00,,,0.00,VWS V14.01,2013-05-30 06:41:00,
2013-05-30 01:45:00,59.0,54.4,29.47,NE,51,7.0,13.0,85,0.00,,,0.00,VWS V14.01,2013-05-30 06:45:00,
2013-05-30 01:46:00,58.1,54.2,29.46,NE,48,3.0,9.0,87,0.00,,,0.00,VWS V14.01,2013-05-30 06:46:00,
2013-05-30 01:51:00,58.1,54.2,29.46,NE,40,9.0,10.0,87,0.00,,,0.00,VWS V14.01,2013-05-30 06:51:00,
2013-05-30 01:56:00,58.0,54.1,29.46,ENE,72,8.0,12.0,87,0.00,,,0.00,VWS V14.01,2013-05-30 06:56:00,
2013-05-30 02:00:00,58.8,54.5,29.47,ENE,68,11.0,14.0,86,0.00,,,0.00,VWS V14.01,2013-05-30 07:00:00,
2013-05-30 02:01:00,58.0,54.1,29.46,NE,49,2.0,5.0,87,0.00,,,0.00,VWS V14.01,2013-05-30 07:01:00,
2013-05-30 02:06:00,57.9,54.0,29.46,NE,34,9.0,12.0,87,0.00,,,0.00,VWS V14.01,2013-05-30 07:06:00,
2013-05-30 02:11:00,57.8,53.9,29.46,NNE,15,4.0,12.0,87,0.00,,,0.00,VWS V14.01,2013-05-30 07:11:00,
2013-05-30 02:15:00,58.5,54.2,29.46,NE,51,11.0,13.0,86,0.00,,,0.00,VWS V14.01,2013-05-30 07:15:00,
2013-05-30 02:16:00,57.8,54.2,29.46,NE,34,5.0,6.0,88,0.00,,,0.00,VWS V14.01,2013-05-30 07:16:00,
2013-05-30 02:21:00,57.8,54.2,29.46,NE,49,4.0,14.0,88,0.00,,,0.00,VWS V14.01,2013-05-30 07:21:00,
2013-05-30 02:26:00,57.7,54.1,29.45,NE,50,9.0,15.0,88,0.00,,,0.00,VWS V14.01,2013-05-30 07:26:00,
2013-05-30 02:30:00,58.3,54.0,29.46,NE,35,3.0,11.0,86,0.00,,,0.00,VWS V14.01,2013-05-30 07:30:00,
2013-05-30 02:31:00,57.7,54.1,29.45,NE,53,5.0,11.0,88,0.00,,,0.00,VWS V14.01,2013-05-30 07:31:00,
2013-05-30 02:36:00,57.7,54.1,29.45,ENE,69,1.0,13.0,88,0.00,,,0.00,VWS V14.01,2013-05-30 07:36:00,
2013-05-30 02:41:00,57.6,54.0,29.44,NNE,29,4.0,13.0,88,0.00,,,0.00,VWS V14.01,2013-05-30 07:41:00,
2013-05-30 02:45:00,58.1,54.2,29.46,NE,38,8.0,13.0,87,0.00,,,0.00,VWS V14.01,2013-05-30 07:45:00,
2013-05-30 02:46:00,57.5,54.2,29.44,NNE,31,4.0,7.0,89,0.00,,,0.00,VWS V14.01,2013-05-30 07:46:00,
2013-05-30 02:51:00,57.5,54.2,29.43,NNE,15,5.0,11.0,89,0.00,,,0.00,VWS V14.01,2013-05-30 07:51:00,
2013-05-30 02:56:00,57.4,54.1,29.43,ENE,57,5.0,12.0,89,0.00,,,0.00,VWS V14.01,2013-05-30 07:56:00,
2013-05-30 03:00:00,58.0,54.1,29.46,NE,41,2.0,12.0,87,0.00,,,0.00,VWS V14.01,2013-05-30 08:00:00,
2013-05-30 03:01:00,57.4,54.1,29.43,NE,51,6.0,11.0,89,0.00,,,0.00,VWS V14.01,2013-05-30 08:01:00,
2013-05-30 03:06:00,57.3,54.0,29.43,NNE,21,7.0,16.0,89,0.00,,,0.00,VWS V14.01,2013-05-30 08:06:00,
2013-05-30 03:11:00,57.2,53.9,29.42,NE,47,9.0,16.0,89,0.00,,,0.00,VWS V14.01,2013-05-30 08:11:00,
2013-05-30 03:15:00,57.8,54.2,29.46,NNE,29,3.0,12.0,88,0.00,,,0.00,VWS V14.01,2013-05-30 08:15:00,
2013-05-30 03:16:00,57.1,54.1,29.42,NE,39,9.0,15.0,90,0.00,,,0.00,VWS V14.01,2013-05-30 08:16:00,
2013-05-30 03:21:00,56.9,53.9,29.42,ENE,59,5.0,15.0,90,0.00,,,0.00,VWS V14.01,2013-05-30 08:21:00,
2013-05-30 03:26:00,56.8,53.8,29.42,NE,38,6.0,15.0,90,0.00,,,0.00,VWS V14.01,2013-05-30 08:26:00,
2013-05-30 03:30:00,57.7,54.1,29.45,NE,36,8.0,15.0,88,0.00,,,0.00,VWS V14.01,2013-05-30 08:30:00,
2013-05-30 03:31:00,56.7,53.7,29.41,NE,48,5.0,11.0,90,0.00,,,0.00,VWS V14.01,2013-05-30 08:31:00,
2013-05-30 03:36:00,56.6,53.6,29.42,NE,49,7.0,13.0,90,0.00,,,0.00,VWS V14.01,2013-05-30 08:36:00,
2013-05-30 03:41:00,56.5,53.5,29.42,NE,40,15.0,16.0,90,0.00,,,0.00,VWS V14.01,2013-05-30 08:41:00,
2013-05-30 03:45:00,57.6,54.3,29.44,ENE,65,7.0,13.0,89,0.00,,,0.00,VWS V14.01,2013-05-30 08:45:00,
2013-05-30 03:46:00,56.4,53.4,29.41,NNE,32,9.0,9.0,90,0.00,,,0.00,VWS V14.01,2013-05-30 08:46:00,
2013-05-30 03:51:00,56.2,53.5,29.41,ENE,58,5.0,16.0,91,0.00,,,0.00,VWS V14.01,2013-05-30 08:51:00,
2013-05-30 03:56:00,56.1,53.4,29.41,NE,44,11.0,16.0,91,0.00,,,0.00,VWS V14.01,2013-05-30 08:56:00,
2013-05-30 04:00:00,57.4,54.1,29.43,NNE,19,6.0,13.0,89,0.00,,,0.00,VWS V14.01,2013-05-30 09:00:00,
2013-05-30 04:01:00,56.1,53.4,29.41,NNE,29,13.0,14.0,91,0.00,,,0.00,VWS V14.01,2013-05-30 09:01:00,
2013-05-30 04:06:00,56.0,53.3,29.40,NE,36,8.0,21.0,91,0.00,,,0.00,VWS V14.01,2013-05-30 09:06:00,
2013-05-30 04:11:00,55.9,53.2,29.40,NE,51,3.0,21.0,91,0.00,,,0.00,VWS V14.01,2013-05-30 09:11:00,
2013-05-30 04:15:00,57.1,54.1,29.42,ENE,70,9.0,16.0,90,0.00,,,0.00,VWS V14.01,2013-05-30 09:15:00,
2013-05-30 04:16:00,55.8,53.1,29.40,North,11,6.0,16.0,91,0.00,,,0.00,VWS V14.01,2013-05-30 09:16:00,
2013-05-30 04:21:00,55.7,53.0,29.40,NNE,26,5.0,19.0,91,0.00,,,0.00,VWS V14.01,2013-05-30 09:21:00,
2013-05-30 04:26:00,55.7,53.0,29.40,NE,34,7.0,19.0,91,0.00,,,0.00,VWS V14.01,2013-05-30 09:26:00,
2013-05-30 04:30:00,56.7,53.7,29.42,North,9,8.0,15.0,90,0.00,,,0.00,VWS V14.01,2013-05-30 09:30:00,
2013-05-30 04:31:00,55.5,52.8,29.40,NE,42,13.0,14.0,91,0.00,,,0.00,VWS V14.01,2013-05-30 09:31:00,
2013-05-30 04:36:00,55.5,52.8,29.40,NE,39,5.0,17.0,91,0.00,,,0.00,VWS V14.01,2013-05-30 09:36:00,
2013-05-30 04:41:00,55.5,52.8,29.39,NNE,22,6.0,17.0,91,0.00,,,0.00,VWS V14.01,2013-05-30 09:41:00,
2013-05-30 04:45:00,56.4,53.4,29.41,NE,38,6.0,16.0,90,0.00,,,0.00,VWS V14.01,2013-05-30 09:45:00,
2013-05-30 04:46:00,55.4,52.7,29.39,NE,44,4.0,11.0,91,0.00,,,0.00,VWS V14.01,2013-05-30 09:46:00,
2013-05-30 04:51:00,55.3,52.6,29.39,NE,40,8.0,21.0,91,0.00,,,0.00,VWS V14.01,2013-05-30 09:51:00,
2013-05-30 04:56:00,55.2,52.5,29.39,NE,46,11.0,21.0,91,0.00,,,0.00,VWS V14.01,2013-05-30 09:56:00,
2013-05-30 05:00:00,56.1,53.4,29.40,NNE,29,12.0,16.0,91,0.00,,,0.00,VWS V14.01,2013-05-30 10:00:00,
2013-05-30 05:01:00,55.1,52.4,29.39,NNE,25,4.0,11.0,91,0.00,,,0.00,VWS V14.01,2013-05-30 10:01:00,
2013-05-30 05:06:00,55.0,52.3,29.39,NE,42,4.0,16.0,91,0.00,,,0.00,VWS V14.01,2013-05-30 10:06:00,
2013-05-30 05:11:00,54.9,52.2,29.39,NNE,19,7.0,18.0,91,0.00,,,0.00,VWS V14.01,2013-05-30 10:11:00,
2013-05-30 05:15:00,55.8,53.1,29.40,NE,44,4.0,21.0,91,0.00,,,0.00,VWS V14.01,2013-05-30 10:15:00,
2013-05-30 05:16:00,54.8,52.1,29.38,NE,40,3.0,7.0,91,0.00,,,0.00,VWS V14.01,2013-05-30 10:16:00,
2013-05-30 05:21:00,54.8,52.1,29.38,NNE,28,6.0,15.0,91,0.00,,,0.00,VWS V14.01,2013-05-30 10:21:00,
2013-05-30 05:26:00,54.6,51.9,29.38,NE,55,6.0,15.0,91,0.00,,,0.00,VWS V14.01,2013-05-30 10:26:00,
2013-05-30 05:30:00,55.6,52.9,29.40,NE,49,5.0,19.0,91,0.00,,,0.00,VWS V14.01,2013-05-30 10:30:00,
2013-05-30 05:31:00,54.5,51.8,29.38,NNE,29,6.0,10.0,91,0.00,,,0.00,VWS V14.01,2013-05-30 10:31:00,
2013-05-30 05:36:00,54.4,51.7,29.38,ENE,68,8.0,16.0,91,0.00,,,0.00,VWS V14.01,2013-05-30 10:36:00,
2013-05-30 05:41:00,54.3,51.6,29.38,ENE,57,9.0,16.0,91,0.00,,,0.00,VWS V14.01,2013-05-30 10:41:00,
2013-05-30 05:45:00,55.5,52.8,29.39,NNE,30,7.0,17.0,91,0.00,,,0.00,VWS V14.01,2013-05-30 10:45:00,
2013-05-30 05:46:00,54.3,51.9,29.38,NE,36,5.0,6.0,92,0.00,,,0.00,VWS V14.01,2013-05-30 10:46:00,
2013-05-30 05:51:00,54.4,52.0,29.38,NE,34,11.0,15.0,92,0.00,,,0.00,VWS V14.01,2013-05-30 10:51:00,
2013-05-30 05:56:00,54.4,52.0,29.39,NE,49,7.0,15.0,92,0.00,,,0.00,VWS V14.01,2013-05-30 10:56:00,
2013-05-30 06:00:00,55.1,52.4,29.39,NNE,32,10.0,21.0,91,0.00,,,0.00,VWS V14.01,2013-05-30 11:00:00,
2013-05-30 06:01:00,54.5,52.1,29.39,NE,53,5.0,13.0,92,0.00,,,0.00,VWS V14.01,2013-05-30 11:01:00,
2013-05-30 06:06:00,54.5,52.1,29.39,NNE,26,3.0,14.0,92,0.00,,,0.00,VWS V14.01,2013-05-30 11:06:00,
2013-05-30 06:11:00,54.3,51.9,29.39,NE,38,8.0,14.0,92,0.00,,,0.00,VWS V14.01,2013-05-30 11:11:00,
2013-05-30 06:15:00,54.8,52.1,29.38,NNE,15,4.0,18.0,91,0.00,,,0.00,VWS V14.01,2013-05-30 11:15:00,
2013-05-30 06:16:00,54.0,51.6,29.39,NE,39,3.0,4.0,92,0.00,,,0.00,VWS V14.01,2013-05-30 11:16:00,
2013-05-30 06:21:00,53.7,51.6,29.39,NNE,19,6.0,12.0,93,0.01,,,0.01,VWS V14.01,2013-05-30 11:21:00,
2013-05-30 06:26:00,53.5,51.4,29.39,North,355,2.0,15.0,93,0.01,,,0.01,VWS V14.01,2013-05-30 11:26:00,
2013-05-30 06:30:00,54.4,51.7,29.38,NNE,18,5.0,16.0,91,0.00,,,0.00,VWS V14.01,2013-05-30 11:30:00,
2013-05-30 06:31:00,53.3,51.2,29.39,NNE,16,6.0,6.0,93,0.02,,,0.02,VWS V14.01,2013-05-30 11:31:00,
2013-05-30 06:36:00,53.2,51.4,29.39,North,11,6.0,9.0,94,0.03,,,0.03,VWS V14.01,2013-05-30 11:36:00,
2013-05-30 06:41:00,53.1,51.3,29.39,North,9,3.0,9.0,94,0.04,,,0.04,VWS V14.01,2013-05-30 11:41:00,
2013-05-30 06:45:00,54.3,51.9,29.38,NE,34,6.0,16.0,92,0.00,,,0.00,VWS V14.01,2013-05-30 11:45:00,
2013-05-30 06:46:00,52.9,51.1,29.40,NE,35,5.0,5.0,94,0.05,,,0.05,VWS V14.01,2013-05-30 11:46:00,
2013-05-30 06:51:00,52.8,51.3,29.40,NNE,20,3.0,10.0,95,0.06,,,0.06,VWS V14.01,2013-05-30 11:51:00,
2013-05-30 06:56:00,52.8,51.3,29.40,NE,49,2.0,10.0,95,0.06,,,0.06,VWS V14.01,2013-05-30 11:56:00,
2013-05-30 07:00:00,54.5,52.1,29.39,NNE,28,13.0,15.0,92,0.00,,,0.00,VWS V14.01,2013-05-30 12:00:00,
2013-05-30 07:01:00,52.8,51.3,29.40,NNE,14,2.0,3.0,95,0.08,,,0.08,VWS V14.01,2013-05-30 12:01:00,
2013-05-30 07:06:00,52.8,51.3,29.40,NNE,17,0.0,9.0,95,0.09,,,0.09,VWS V14.01,2013-05-30 12:06:00,
2013-05-30 07:10:00,52.7,51.2,29.39,NNE,20,5.0,9.0,95,0.12,,,0.12,VWS V14.01,2013-05-30 12:10:00,
2013-05-30 07:15:00,54.0,51.7,29.39,NE,36,3.0,14.0,92,0.00,,,0.00,VWS V14.01,2013-05-30 12:15:00,
2013-05-30 07:16:00,52.7,51.2,29.39,NNE,12,3.0,3.0,95,0.13,,,0.13,VWS V14.01,2013-05-30 12:16:00,
2013-05-30 07:21:00,52.7,51.2,29.39,North,5,2.0,10.0,95,0.15,,,0.15,VWS V14.01,2013-05-30 12:21:00,
2013-05-30 07:25:00,52.8,51.3,29.39,NNE,25,0.0,10.0,95,0.16,,,0.16,VWS V14.01,2013-05-30 12:25:00,
2013-05-30 07:30:00,52.8,51.6,29.39,North,5,1.0,2.0,96,0.16,,,0.18,VWS V14.01,2013-05-30 12:30:00,
2013-05-30 07:35:00,52.8,51.6,29.39,NNE,25,2.0,8.0,96,0.18,,,0.20,VWS V14.01,2013-05-30 12:35:00,
2013-05-30 07:40:00,52.8,51.6,29.38,NE,34,0.0,8.0,96,0.19,,,0.21,VWS V14.01,2013-05-30 12:40:00,
2013-05-30 07:45:00,52.8,51.6,29.38,NNE,15,4.0,8.0,96,0.17,,,0.22,VWS V14.01,2013-05-30 12:45:00,
2013-05-30 07:50:00,52.9,51.7,29.38,NNE,20,2.0,8.0,96,0.19,,,0.24,VWS V14.01,2013-05-30 12:50:00,
2013-05-30 07:55:00,53.0,51.8,29.38,NW,321,1.0,8.0,96,0.20,,,0.25,VWS V14.01,2013-05-30 12:55:00,
2013-05-30 08:00:00,53.0,51.8,29.37,NE,47,0.0,1.0,96,0.19,,,0.27,VWS V14.01,2013-05-30 13:00:00,
2013-05-30 08:05:00,53.1,51.9,29.37,NNW,332,3.0,7.0,96,0.20,,,0.28,VWS V14.01,2013-05-30 13:05:00,
2013-05-30 08:10:00,53.2,52.0,29.36,NNE,28,5.0,12.0,96,0.20,,,0.28,VWS V14.01,2013-05-30 13:10:00,
2013-05-30 08:15:00,53.3,52.1,29.36,ENE,58,5.0,5.0,96,0.16,,,0.29,VWS V14.01,2013-05-30 13:15:00,
2013-05-30 08:20:00,53.4,52.2,29.36,ENE,78,4.0,7.0,96,0.17,,,0.30,VWS V14.01,2013-05-30 13:20:00,
2013-05-30 08:25:00,53.5,52.6,29.36,NE,34,6.0,13.0,97,0.18,,,0.31,VWS V14.01,2013-05-30 13:25:00,
2013-05-30 08:30:00,53.6,52.7,29.35,NE,40,4.0,4.0,97,0.14,,,0.32,VWS V14.01,2013-05-30 13:30:00,
2013-05-30 08:35:00,53.7,52.8,29.35,NE,35,8.0,9.0,97,0.15,,,0.33,VWS V14.01,2013-05-30 13:35:00,
2013-05-30 08:40:00,53.8,52.9,29.35,NNE,18,7.0,14.0,97,0.18,,,0.36,VWS V14.01,2013-05-30 13:40:00,
2013-05-30 08:45:00,53.9,53.0,29.35,NNE,21,4.0,9.0,97,0.15,,,0.37,VWS V14.01,2013-05-30 13:45:00,
2013-05-30 08:50:00,53.9,53.0,29.35,NE,41,5.0,15.0,97,0.16,,,0.38,VWS V14.01,2013-05-30 13:50:00,
2013-05-30 08:55:00,54.1,53.2,29.34,North,5,5.0,15.0,97,0.17,,,0.39,VWS V14.01,2013-05-30 13:55:00,
2013-05-30 09:00:00,54.1,53.2,29.34,NNE,32,6.0,6.0,97,0.13,,,0.40,VWS V14.01,2013-05-30 14:00:00,
2013-05-30 09:05:00,54.2,53.3,29.34,NNE,26,3.0,13.0,97,0.13,,,0.40,VWS V14.01,2013-05-30 14:05:00,
2013-05-30 09:10:00,54.2,53.3,29.34,NNE,26,9.0,14.0,97,0.14,,,0.41,VWS V14.01,2013-05-30 14:10:00,
2013-05-30 09:15:00,54.3,53.4,29.33,NE,43,5.0,5.0,97,0.13,,,0.42,VWS V14.01,2013-05-30 14:15:00,
2013-05-30 09:20:00,54.3,53.4,29.33,NNE,16,4.0,16.0,97,0.13,,,0.42,VWS V14.01,2013-05-30 14:20:00,
2013-05-30 09:25:00,54.3,53.4,29.33,NNE,26,4.0,17.0,97,0.14,,,0.43,VWS V14.01,2013-05-30 14:25:00,
2013-05-30 09:30:00,54.3,53.4,29.33,NE,44,8.0,10.0,97,0.12,,,0.44,VWS V14.01,2013-05-30 14:30:00,
2013-05-30 09:35:00,54.3,53.4,29.32,NE,42,10.0,18.0,97,0.12,,,0.44,VWS V14.01,2013-05-30 14:35:00,
2013-05-30 09:40:00,54.4,53.5,29.33,NE,55,6.0,18.0,97,0.13,,,0.45,VWS V14.01,2013-05-30 14:40:00,
2013-05-30 09:45:00,54.5,53.6,29.32,North,360,4.0,6.0,97,0.08,,,0.45,VWS V14.01,2013-05-30 14:45:00,
2013-05-30 09:50:00,54.5,53.6,29.32,NNE,14,6.0,14.0,97,0.09,,,0.46,VWS V14.01,2013-05-30 14:50:00,
2013-05-30 09:55:00,54.4,53.5,29.32,NE,53,6.0,19.0,97,0.09,,,0.46,VWS V14.01,2013-05-30 14:55:00,
2013-05-30 10:00:00,54.4,53.5,29.32,NNE,23,8.0,8.0,97,0.06,,,0.46,VWS V14.01,2013-05-30 15:00:00,
2013-05-30 10:05:00,54.4,53.5,29.32,NE,47,7.0,13.0,97,0.06,,,0.46,VWS V14.01,2013-05-30 15:05:00,
2013-05-30 10:10:00,54.5,53.6,29.32,NE,51,5.0,16.0,97,0.06,,,0.46,VWS V14.01,2013-05-30 15:10:00,
2013-05-30 10:15:00,54.5,53.6,29.31,NE,55,10.0,12.0,97,0.04,,,0.46,VWS V14.01,2013-05-30 15:15:00,
2013-05-30 10:20:00,54.5,53.6,29.31,NNE,22,6.0,19.0,97,0.04,,,0.46,VWS V14.01,2013-05-30 15:20:00,
2013-05-30 10:25:00,54.6,53.7,29.31,NNE,16,14.0,19.0,97,0.04,,,0.46,VWS V14.01,2013-05-30 15:25:00,
2013-05-30 10:30:00,54.6,53.7,29.31,NE,55,6.0,6.0,97,0.02,,,0.46,VWS V14.01,2013-05-30 15:30:00,
2013-05-30 10:35:00,54.6,53.7,29.31,NNE,27,7.0,12.0,97,0.03,,,0.47,VWS V14.01,2013-05-30 15:35:00,
2013-05-30 10:40:00,54.6,53.7,29.31,ENE,62,8.0,18.0,97,0.04,,,0.48,VWS V14.01,2013-05-30 15:40:00,
2013-05-30 10:45:00,54.7,53.8,29.30,NNE,26,4.0,5.0,97,0.03,,,0.48,VWS V14.01,2013-05-30 15:45:00,
2013-05-30 10:50:00,54.7,53.8,29.30,NE,40,5.0,14.0,97,0.03,,,0.48,VWS V14.01,2013-05-30 15:50:00,
2013-05-30 10:55:00,54.8,53.9,29.30,NNE,24,11.0,14.0,97,0.03,,,0.48,VWS V14.01,2013-05-30 15:55:00,
2013-05-30 11:00:00,54.8,53.9,29.30,NE,36,11.0,11.0,97,0.03,,,0.49,VWS V14.01,2013-05-30 16:00:00,
2013-05-30 11:05:00,54.9,54.0,29.30,NE,53,5.0,17.0,97,0.03,,,0.49,VWS V14.01,2013-05-30 16:05:00,
2013-05-30 11:10:00,55.0,54.1,29.30,NNE,14,4.0,17.0,97,0.04,,,0.50,VWS V14.01,2013-05-30 16:10:00,
2013-05-30 11:15:00,55.1,54.2,29.30,NNE,23,9.0,9.0,97,0.06,,,0.52,VWS V14.01,2013-05-30 16:15:00,
2013-05-30 11:20:00,55.2,54.3,29.29,NE,37,10.0,18.0,97,0.06,,,0.52,VWS V14.01,2013-05-30 16:20:00,
2013-05-30 11:25:00,55.3,54.4,29.29,NE,38,9.0,18.0,97,0.07,,,0.53,VWS V14.01,2013-05-30 16:25:00,
2013-05-30 11:30:00,55.3,54.4,29.28,NNE,27,4.0,4.0,97,0.08,,,0.54,VWS V14.01,2013-05-30 16:30:00,
2013-05-30 11:35:00,55.4,54.5,29.28,NNE,22,8.0,19.0,97,0.08,,,0.54,VWS V14.01,2013-05-30 16:35:00,
2013-05-30 11:40:00,55.5,54.6,29.28,NE,48,9.0,19.0,97,0.09,,,0.55,VWS V14.01,2013-05-30 16:40:00,
2013-05-30 11:45:00,55.6,54.7,29.27,North,5,4.0,4.0,97,0.08,,,0.56,VWS V14.01,2013-05-30 16:45:00,
2013-05-30 11:50:00,55.7,54.8,29.27,NNE,31,3.0,16.0,97,0.09,,,0.57,VWS V14.01,2013-05-30 16:50:00,
2013-05-30 11:55:00,55.7,54.8,29.27,NNE,14,12.0,17.0,97,0.10,,,0.58,VWS V14.01,2013-05-30 16:55:00,
2013-05-30 12:00:00,55.7,54.8,29.27,NNE,26,9.0,19.0,97,0.10,,,0.58,VWS V14.01,2013-05-30 17:00:00,
2013-05-30 12:05:00,55.8,54.9,29.26,NNE,24,4.0,22.0,97,0.09,,,0.58,VWS V14.01,2013-05-30 17:05:00,
2013-05-30 12:10:00,55.9,55.0,29.26,NNE,24,8.0,22.0,97,0.09,,,0.58,VWS V14.01,2013-05-30 17:10:00,
2013-05-30 12:15:00,55.8,54.9,29.26,North,349,6.0,6.0,97,0.06,,,0.58,VWS V14.01,2013-05-30 17:15:00,
2013-05-30 12:20:00,55.7,54.8,29.26,ENE,76,7.0,17.0,97,0.06,,,0.58,VWS V14.01,2013-05-30 17:20:00,
2013-05-30 12:25:00,55.7,54.8,29.26,NE,38,4.0,17.0,97,0.07,,,0.59,VWS V14.01,2013-05-30 17:25:00,
2013-05-30 12:30:00,55.7,54.8,29.26,NE,40,7.0,8.0,97,0.05,,,0.59,VWS V14.01,2013-05-30 17:30:00,
2013-05-30 12:35:00,55.7,54.8,29.26,ENE,57,10.0,13.0,97,0.05,,,0.59,VWS V14.01,2013-05-30 17:35:00,
2013-05-30 12:40:00,55.7,54.8,29.26,NE,39,4.0,18.0,97,0.05,,,0.59,VWS V14.01,2013-05-30 17:40:00,
2013-05-30 12:45:00,55.7,54.8,29.26,ENE,59,8.0,18.0,97,0.06,,,0.60,VWS V14.01,2013-05-30 17:45:00,
2013-05-30 12:50:00,55.6,54.7,29.26,NNE,13,9.0,17.0,97,0.04,,,0.60,VWS V14.01,2013-05-30 17:50:00,
2013-05-30 12:55:00,55.5,54.6,29.26,NE,42,6.0,17.0,97,0.05,,,0.61,VWS V14.01,2013-05-30 17:55:00,
2013-05-30 13:00:00,55.5,54.6,29.27,NE,48,9.0,17.0,97,0.06,,,0.62,VWS V14.01,2013-05-30 18:00:00,
2013-05-30 13:05:00,55.4,54.5,29.27,NE,38,14.0,19.0,97,0.04,,,0.62,VWS V14.01,2013-05-30 18:05:00,
2013-05-30 13:10:00,55.4,54.5,29.27,NNE,30,10.0,19.0,97,0.04,,,0.62,VWS V14.01,2013-05-30 18:10:00,
2013-05-30 13:15:00,55.5,54.6,29.27,ENE,65,5.0,19.0,97,0.05,,,0.63,VWS V14.01,2013-05-30 18:15:00,
2013-05-30 13:20:00,55.5,54.6,29.27,NNE,17,11.0,18.0,97,0.06,,,0.64,VWS V14.01,2013-05-30 18:20:00,
2013-05-30 13:25:00,55.5,54.6,29.27,NNE,28,10.0,18.0,97,0.08,,,0.66,VWS V14.01,2013-05-30 18:25:00,
2013-05-30 13:30:00,55.6,55.0,29.27,North,11,9.0,18.0,98,0.09,,,0.67,VWS V14.01,2013-05-30 18:30:00,
2013-05-30 13:35:00,55.8,55.2,29.27,NE,34,6.0,15.0,98,0.09,,,0.68,VWS V14.01,2013-05-30 18:35:00,
2013-05-30 13:40:00,55.8,54.9,29.27,NE,36,15.0,17.0,97,0.10,,,0.69,VWS V14.01,2013-05-30 18:40:00,
2013-05-30 13:45:00,55.8,54.9,29.27,NE,34,16.0,22.0,97,0.12,,,0.71,VWS V14.01,2013-05-30 18:45:00,
2013-05-30 13:50:00,55.6,54.7,29.27,NE,36,4.0,24.0,97,0.12,,,0.72,VWS V14.01,2013-05-30 18:50:00,
2013-05-30 13:55:00,55.6,54.7,29.26,NNE,27,7.0,24.0,97,0.14,,,0.74,VWS V14.01,2013-05-30 18:55:00,
2013-05-30 14:00:00,55.7,55.1,29.26,NE,38,6.0,24.0,98,0.14,,,0.74,VWS V14.01,2013-05-30 19:00:00,
2013-05-30 14:05:00,55.6,55.0,29.26,NNE,30,10.0,20.0,98,0.14,,,0.76,VWS V14.01,2013-05-30 19:05:00,
2013-05-30 14:10:00,55.6,55.0,29.26,NNE,19,10.0,20.0,98,0.14,,,0.76,VWS V14.01,2013-05-30 19:10:00,
2013-05-30 14:15:00,55.4,54.5,29.26,NE,49,11.0,25.0,97,0.15,,,0.77,VWS V14.01,2013-05-30 19:15:00,
2013-05-30 14:20:00,55.6,55.0,29.26,NE,55,9.0,19.0,98,0.15,,,0.78,VWS V14.01,2013-05-30 19:20:00,
2013-05-30 14:25:00,55.5,54.6,29.25,NNE,14,9.0,20.0,97,0.16,,,0.79,VWS V14.01,2013-05-30 19:25:00,
2013-05-30 14:30:00,55.4,54.5,29.25,NNE,26,9.0,20.0,97,0.17,,,0.80,VWS V14.01,2013-05-30 19:30:00,
2013-05-30 14:35:00,55.3,54.4,29.25,NNE,32,13.0,20.0,97,0.13,,,0.80,VWS V14.01,2013-05-30 19:35:00,
2013-05-30 14:40:00,55.2,54.3,29.25,NE,50,14.0,20.0,97,0.13,,,0.80,VWS V14.01,2013-05-30 19:40:00,
2013-05-30 14:45:00,55.1,54.2,29.25,NE,36,7.0,20.0,97,0.14,,,0.81,VWS V14.01,2013-05-30 19:45:00,
2013-05-30 14:50:00,55.0,54.4,29.25,NNE,30,9.0,20.0,98,0.10,,,0.81,VWS V14.01,2013-05-30 19:50:00,
2013-05-30 14:55:00,55.1,54.5,29.25,ENE,60,14.0,20.0,98,0.10,,,0.81,VWS V14.01,2013-05-30 19:55:00,
2013-05-30 15:00:00,55.2,54.6,29.25,ENE,57,9.0,20.0,98,0.10,,,0.81,VWS V14.01,2013-05-30 20:00:00,
2013-05-30 15:05:00,55.2,54.6,29.25,NNE,32,13.0,22.0,98,0.08,,,0.82,VWS V14.01,2013-05-30 20:05:00,
2013-05-30 15:10:00,55.3,54.7,29.25,NE,51,16.0,22.0,98,0.08,,,0.82,VWS V14.01,2013-05-30 20:10:00,
2013-05-30 15:15:00,55.1,54.5,29.24,NNE,16,6.0,22.0,98,0.08,,,0.82,VWS V14.01,2013-05-30 20:15:00,
2013-05-30 15:20:00,55.3,54.7,29.25,NNW,344,2.0,16.0,98,0.05,,,0.82,VWS V14.01,2013-05-30 20:20:00,
2013-05-30 15:25:00,55.3,54.7,29.24,NE,43,8.0,20.0,98,0.05,,,0.82,VWS V14.01,2013-05-30 20:25:00,
2013-05-30 15:30:00,55.3,54.7,29.24,North,5,6.0,20.0,98,0.05,,,0.82,VWS V14.01,2013-05-30 20:30:00,
2013-05-30 15:35:00,55.4,54.8,29.24,NE,37,14.0,20.0,98,0.02,,,0.82,VWS V14.01,2013-05-30 20:35:00,
2013-05-30 15:40:00,55.4,54.8,29.24,NNE,31,7.0,20.0,98,0.03,,,0.83,VWS V14.01,2013-05-30 20:40:00,
2013-05-30 15:45:00,55.6,55.0,29.24,NE,41,9.0,20.0,98,0.03,,,0.83,VWS V14.01,2013-05-30 20:45:00,
2013-05-30 15:50:00,55.6,55.0,29.24,ENE,63,8.0,18.0,98,0.02,,,0.83,VWS V14.01,2013-05-30 20:50:00,
2013-05-30 15:55:00,55.6,55.0,29.24,NNE,30,8.0,18.0,98,0.03,,,0.84,VWS V14.01,2013-05-30 20:55:00,
2013-05-30 16:00:00,55.5,54.9,29.24,North,10,6.0,19.0,98,0.04,,,0.85,VWS V14.01,2013-05-30 21:00:00,
2013-05-30 16:05:00,55.7,55.1,29.24,NNE,20,9.0,18.0,98,0.05,,,0.86,VWS V14.01,2013-05-30 21:05:00,
2013-05-30 16:10:00,55.9,55.3,29.24,NNE,32,5.0,18.0,98,0.06,,,0.87,VWS V14.01,2013-05-30 21:10:00,
2013-05-30 16:15:00,55.9,55.3,29.24,NE,34,4.0,18.0,98,0.07,,,0.88,VWS V14.01,2013-05-30 21:15:00,
2013-05-30 16:20:00,56.0,55.4,29.24,NE,48,5.0,17.0,98,0.07,,,0.89,VWS V14.01,2013-05-30 21:20:00,
2013-05-30 16:25:00,56.0,55.4,29.24,NNE,19,3.0,17.0,98,0.08,,,0.90,VWS V14.01,2013-05-30 21:25:00,
2013-05-30 16:30:00,56.2,55.6,29.25,ENE,66,12.0,17.0,98,0.08,,,0.90,VWS V14.01,2013-05-30 21:30:00,
2013-05-30 16:35:00,56.2,55.6,29.24,NE,38,9.0,16.0,98,0.09,,,0.91,VWS V14.01,2013-05-30 21:35:00,
2013-05-30 16:40:00,56.3,55.7,29.24,NE,43,6.0,18.0,98,0.10,,,0.92,VWS V14.01,2013-05-30 21:40:00,
2013-05-30 16:45:00,56.3,55.7,29.24,North,5,8.0,18.0,98,0.11,,,0.93,VWS V14.01,2013-05-30 21:45:00,
2013-05-30 16:50:00,56.3,55.7,29.24,East,86,10.0,15.0,98,0.11,,,0.94,VWS V14.01,2013-05-30 21:50:00,
2013-05-30 16:55:00,56.2,55.6,29.24,NE,47,14.0,21.0,98,0.11,,,0.94,VWS V14.01,2013-05-30 21:55:00,
2013-05-30 17:00:00,56.2,55.6,29.24,NE,34,11.0,21.0,98,0.12,,,0.95,VWS V14.01,2013-05-30 22:00:00,
2013-05-30 17:05:00,56.2,55.6,29.24,NNE,30,10.0,19.0,98,0.10,,,0.95,VWS V14.01,2013-05-30 22:05:00,
2013-05-30 17:10:00,56.2,55.6,29.24,NNE,23,5.0,21.0,98,0.10,,,0.95,VWS V14.01,2013-05-30 22:10:00,
2013-05-30 17:15:00,56.1,55.5,29.23,NE,36,7.0,21.0,98,0.10,,,0.95,VWS V14.01,2013-05-30 22:15:00,
2013-05-30 17:20:00,56.0,55.4,29.24,NNE,24,12.0,16.0,98,0.07,,,0.95,VWS V14.01,2013-05-30 22:20:00,
2013-05-30 17:25:00,56.1,55.5,29.24,NE,48,10.0,16.0,98,0.07,,,0.95,VWS V14.01,2013-05-30 22:25:00,
2013-05-30 17:30:00,56.1,55.5,29.24,ENE,62,13.0,20.0,98,0.07,,,0.95,VWS V14.01,2013-05-30 22:30:00,
2013-05-30 17:35:00,56.1,55.5,29.23,NE,50,17.0,19.0,98,0.05,,,0.95,VWS V14.01,2013-05-30 22:35:00,
2013-05-30 17:40:00,56.1,55.5,29.23,ENE,57,7.0,19.0,98,0.05,,,0.95,VWS V14.01,2013-05-30 22:40:00,
2013-05-30 17:45:00,56.2,55.6,29.23,ENE,61,12.0,21.0,98,0.05,,,0.95,VWS V14.01,2013-05-30 22:45:00,
2013-05-30 17:50:00,56.3,55.7,29.23,NNE,13,12.0,18.0,98,0.02,,,0.95,VWS V14.01,2013-05-30 22:50:00,
2013-05-30 17:55:00,56.4,55.8,29.23,NE,36,8.0,18.0,98,0.02,,,0.95,VWS V14.01,2013-05-30 22:55:00,
2013-05-30 18:00:00,56.5,55.9,29.23,ENE,65,9.0,20.0,98,0.02,,,0.95,VWS V14.01,2013-05-30 23:00:00,
2013-05-30 18:05:00,56.5,55.9,29.24,NE,55,15.0,20.0,98,0.00,,,0.95,VWS V14.01,2013-05-30 23:05:00,
2013-05-30 18:10:00,56.6,56.0,29.24,NNE,16,10.0,24.0,98,0.00,,,0.95,VWS V14.01,2013-05-30 23:10:00,
2013-05-30 18:15:00,56.6,56.0,29.24,NE,46,6.0,24.0,98,0.00,,,0.95,VWS V14.01,2013-05-30 23:15:00,
2013-05-30 18:20:00,56.7,56.1,29.24,ENE,57,10.0,17.0,98,0.00,,,0.95,VWS V14.01,2013-05-30 23:20:00,
2013-05-30 18:25:00,56.8,56.2,29.24,NE,48,11.0,19.0,98,0.00,,,0.95,VWS V14.01,2013-05-30 23:25:00,
2013-05-30 18:30:00,56.9,56.3,29.24,ENE,62,12.0,19.0,98,0.00,,,0.95,VWS V14.01,2013-05-30 23:30:00,
2013-05-30 18:35:00,57.0,56.4,29.24,NE,42,9.0,21.0,98,0.00,,,0.95,VWS V14.01,2013-05-30 23:35:00,
2013-05-30 18:40:00,57.1,56.5,29.24,NE,53,14.0,21.0,98,0.00,,,0.95,VWS V14.01,2013-05-30 23:40:00,
2013-05-30 18:45:00,57.0,56.4,29.24,NE,46,11.0,21.0,98,0.00,,,0.95,VWS V14.01,2013-05-30 23:45:00,
2013-05-30 18:50:00,57.1,56.5,29.24,North,5,7.0,19.0,98,0.00,,,0.95,VWS V14.01,2013-05-30 23:50:00,
2013-05-30 18:55:00,57.1,56.5,29.24,NE,42,13.0,19.0,98,0.00,,,0.95,VWS V14.01,2013-05-30 23:55:00,
2013-05-30 19:00:00,57.2,56.3,29.25,ENE,61,9.0,19.0,97,0.00,,,0.95,VWS V14.01,2013-05-31 00:00:00,
2013-05-30 19:05:00,57.3,56.4,29.24,NE,38,7.0,18.0,97,0.00,,,0.95,VWS V14.01,2013-05-31 00:05:00,
2013-05-30 19:10:00,57.3,56.4,29.24,East,82,10.0,20.0,97,0.00,,,0.95,VWS V14.01,2013-05-31 00:10:00,
2013-05-30 19:15:00,57.4,56.5,29.25,NE,35,8.0,21.0,97,0.00,,,0.95,VWS V14.01,2013-05-31 00:15:00,
2013-05-30 19:20:00,57.5,56.6,29.24,NE,44,8.0,21.0,97,0.00,,,0.95,VWS V14.01,2013-05-31 00:20:00,
2013-05-30 19:25:00,57.6,56.7,29.24,NNE,30,6.0,21.0,97,0.00,,,0.95,VWS V14.01,2013-05-31 00:25:00,
2013-05-30 19:30:00,57.6,56.7,29.25,NE,49,5.0,21.0,97,0.00,,,0.95,VWS V14.01,2013-05-31 00:30:00,
2013-05-30 19:35:00,57.7,56.8,29.25,ENE,58,8.0,14.0,97,0.00,,,0.95,VWS V14.01,2013-05-31 00:35:00,
2013-05-30 19:40:00,57.7,56.8,29.25,North,9,7.0,17.0,97,0.00,,,0.95,VWS V14.01,2013-05-31 00:40:00,
2013-05-30 19:45:00,57.7,56.8,29.24,NE,41,6.0,17.0,97,0.00,,,0.95,VWS V14.01,2013-05-31 00:45:00,
2013-05-30 19:50:00,57.7,56.8,29.25,NE,51,7.0,14.0,97,0.00,,,0.95,VWS V14.01,2013-05-31 00:50:00,
2013-05-30 19:55:00,57.7,56.5,29.25,NE,48,6.0,14.0,96,0.00,,,0.95,VWS V14.01,2013-05-31 00:55:00,
2013-05-30 20:00:00,57.6,56.4,29.25,NE,49,8.0,16.0,96,0.00,,,0.95,VWS V14.01,2013-05-31 01:00:00,
2013-05-30 20:05:00,57.6,56.4,29.25,NNE,33,5.0,18.0,96,0.00,,,0.95,VWS V14.01,2013-05-31 01:05:00,
2013-05-30 20:10:00,57.6,56.4,29.25,NE,55,13.0,18.0,96,0.00,,,0.95,VWS V14.01,2013-05-31 01:10:00,
2013-05-30 20:15:00,57.5,56.3,29.25,NE,53,4.0,18.0,96,0.00,,,0.95,VWS V14.01,2013-05-31 01:15:00,
2013-05-30 20:20:00,57.5,56.3,29.25,NNE,15,9.0,19.0,96,0.00,,,0.95,VWS V14.01,2013-05-31 01:20:00,
2013-05-30 20:25:00,57.5,56.3,29.25,ENE,58,7.0,19.0,96,0.00,,,0.95,VWS V14.01,2013-05-31 01:25:00,
2013-05-30 20:30:00,57.6,56.4,29.25,NE,45,6.0,19.0,96,0.00,,,0.95,VWS V14.01,2013-05-31 01:30:00,
2013-05-30 20:35:00,57.5,56.3,29.25,ENE,59,15.0,23.0,96,0.00,,,0.95,VWS V14.01,2013-05-31 01:35:00,
2013-05-30 20:40:00,57.5,56.3,29.25,NE,44,12.0,23.0,96,0.00,,,0.95,VWS V14.01,2013-05-31 01:40:00,
2013-05-30 20:45:00,57.5,56.3,29.25,ESE,119,8.0,23.0,96,0.00,,,0.95,VWS V14.01,2013-05-31 01:45:00,
2013-05-30 20:50:00,57.6,56.4,29.25,NNE,12,3.0,17.0,96,0.00,,,0.95,VWS V14.01,2013-05-31 01:50:00,
2013-05-30 20:55:00,57.6,56.4,29.26,East,86,15.0,17.0,96,0.00,,,0.95,VWS V14.01,2013-05-31 01:55:00,
2013-05-30 21:00:00,57.6,56.1,29.26,ENE,61,11.0,17.0,95,0.00,,,0.95,VWS V14.01,2013-05-31 02:00:00,
2013-05-30 21:05:00,57.6,56.1,29.26,NE,46,4.0,16.0,95,0.00,,,0.95,VWS V14.01,2013-05-31 02:05:00,
2013-05-30 21:10:00,57.7,56.2,29.26,NE,40,13.0,16.0,95,0.00,,,0.95,VWS V14.01,2013-05-31 02:10:00,
2013-05-30 21:15:00,57.6,56.1,29.26,NE,47,13.0,16.0,95,0.00,,,0.95,VWS V14.01,2013-05-31 02:15:00,
2013-05-30 21:20:00,57.6,56.1,29.26,NE,53,11.0,16.0,95,0.00,,,0.95,VWS V14.01,2013-05-31 02:20:00,
2013-05-30 21:25:00,57.7,56.2,29.26,North,5,12.0,16.0,95,0.00,,,0.95,VWS V14.01,2013-05-31 02:25:00,
2013-05-30 21:30:00,57.7,56.2,29.26,NNE,16,4.0,16.0,95,0.00,,,0.95,VWS V14.01,2013-05-31 02:30:00,
2013-05-30 21:35:00,57.7,56.2,29.26,ENE,61,5.0,15.0,95,0.00,,,0.95,VWS V14.01,2013-05-31 02:35:00,
2013-05-30 21:40:00,57.7,56.2,29.26,NE,52,3.0,15.0,95,0.00,,,0.95,VWS V14.01,2013-05-31 02:40:00,
2013-05-30 21:45:00,57.7,56.2,29.26,NE,34,11.0,15.0,95,0.00,,,0.95,VWS V14.01,2013-05-31 02:45:00,
2013-05-30 21:50:00,57.7,56.2,29.26,NNE,21,3.0,13.0,95,0.00,,,0.95,VWS V14.01,2013-05-31 02:50:00,
2013-05-30 21:55:00,57.8,56.3,29.26,North,11,9.0,13.0,95,0.00,,,0.95,VWS V14.01,2013-05-31 02:55:00,
2013-05-30 22:00:00,57.8,56.3,29.26,ENE,76,9.0,13.0,95,0.00,,,0.95,VWS V14.01,2013-05-31 03:00:00,
2013-05-30 22:05:00,57.8,56.3,29.26,ENE,67,4.0,12.0,95,0.00,,,0.95,VWS V14.01,2013-05-31 03:05:00,
2013-05-30 22:10:00,57.9,56.7,29.26,NE,34,2.0,16.0,96,0.00,,,0.95,VWS V14.01,2013-05-31 03:10:00,
2013-05-30 22:15:00,57.9,56.7,29.27,ENE,66,10.0,16.0,96,0.00,,,0.95,VWS V14.01,2013-05-31 03:15:00,
2013-05-30 22:20:00,57.9,56.7,29.27,NE,52,5.0,13.0,96,0.00,,,0.95,VWS V14.01,2013-05-31 03:20:00,
2013-05-30 22:25:00,58.0,56.8,29.27,NNE,32,3.0,14.0,96,0.00,,,0.95,VWS V14.01,2013-05-31 03:25:00,
2013-05-30 22:30:00,57.9,56.7,29.27,North,11,4.0,14.0,96,0.00,,,0.95,VWS V14.01,2013-05-31 03:30:00,
2013-05-30 22:35:00,57.9,56.7,29.28,NE,51,5.0,14.0,96,0.00,,,0.95,VWS V14.01,2013-05-31 03:35:00,
2013-05-30 22:40:00,57.8,56.6,29.28,NE,53,6.0,14.0,96,0.00,,,0.95,VWS V14.01,2013-05-31 03:40:00,
2013-05-30 22:45:00,57.9,56.7,29.28,NNE,26,13.0,15.0,96,0.00,,,0.95,VWS V14.01,2013-05-31 03:45:00,
2013-05-30 22:50:00,57.8,56.6,29.27,ENE,59,9.0,14.0,96,0.01,,,0.96,VWS V14.01,2013-05-31 03:50:00,
2013-05-30 22:55:00,57.8,56.6,29.28,NNE,27,10.0,20.0,96,0.01,,,0.96,VWS V14.01,2013-05-31 03:55:00,
2013-05-30 23:00:00,57.7,56.5,29.27,NNE,28,6.0,20.0,96,0.01,,,0.96,VWS V14.01,2013-05-31 04:00:00,
2013-05-30 23:01:00,57.7,56.5,29.27,NE,51,10.0,10.0,96,0.01,,,0.96,VWS V14.01,2013-05-31 04:01:00,
2013-05-30 23:06:00,57.6,56.4,29.28,NE,49,5.0,15.0,96,0.01,,,0.96,VWS V14.01,2013-05-31 04:06:00,
2013-05-30 23:11:00,57.5,56.3,29.27,NNE,30,10.0,15.0,96,0.01,,,0.96,VWS V14.01,2013-05-31 04:11:00,
2013-05-30 23:15:00,57.9,56.7,29.27,ENE,61,13.0,16.0,96,0.00,,,0.95,VWS V14.01,2013-05-31 04:15:00,
2013-05-30 23:16:00,57.4,56.2,29.27,NNE,19,8.0,9.0,96,0.01,,,0.96,VWS V14.01,2013-05-31 04:16:00,
2013-05-30 23:21:00,57.3,56.4,29.27,NE,37,13.0,13.0,97,0.01,,,0.96,VWS V14.01,2013-05-31 04:21:00,
2013-05-30 23:26:00,57.3,56.4,29.27,ENE,63,9.0,16.0,97,0.01,,,0.96,VWS V14.01,2013-05-31 04:26:00,
2013-05-30 23:30:00,57.9,56.7,29.27,NE,55,9.0,14.0,96,0.00,,,0.95,VWS V14.01,2013-05-31 04:30:00,
2013-05-30 23:31:00,57.2,56.3,29.27,NE,47,3.0,6.0,97,0.01,,,0.96,VWS V14.01,2013-05-31 04:31:00,
2013-05-30 23:36:00,57.2,56.3,29.27,NE,36,2.0,14.0,97,0.03,,,0.98,VWS V14.01,2013-05-31 04:36:00,
2013-05-30 23:41:00,57.1,56.2,29.27,NE,44,7.0,18.0,97,0.06,,,1.01,VWS V14.01,2013-05-31 04:41:00,
2013-05-30 23:45:00,57.9,56.7,29.28,NE,42,5.0,15.0,96,0.00,,,0.95,VWS V14.01,2013-05-31 04:45:00,
2013-05-30 23:46:00,57.1,56.2,29.27,NNE,16,4.0,9.0,97,0.06,,,1.01,VWS V14.01,2013-05-31 04:46:00,
2013-05-30 23:51:00,57.1,56.2,29.27,NE,34,6.0,14.0,97,0.06,,,1.01,VWS V14.01,2013-05-31 04:51:00,
2013-05-30 23:56:00,57.1,56.2,29.27,NNE,32,5.0,15.0,97,0.06,,,1.01,VWS V14.01,2013-05-31 04:56:00,